Change the Weather History Date:

Tuesday, July 1, 2014

  Actual Average Record
Temperature  
Mean Temperature 73 °F 76 °F  
Max Temperature 84 °F 86 °F 102 °F (1933)
Min Temperature 61 °F 66 °F 51 °F (1968)
Degree Days  
Heating Degree Days 0 0  
Month to date heating degree days 0 0  
Since 1 June heating degree days 1 8  
Since 1 July heating degree days 0 0  
Cooling Degree Days 8 11  
Month to date cooling degree days 8 11  
Year to date cooling degree days 448 391  
Since 1 June cooling degree days 287 278  
Growing Degree Days 24 (Base 50)    
Moisture  
Dew Point 61 °F    
Average Humidity 72    
Maximum Humidity 100    
Minimum Humidity 44    
Precipitation  
Precipitation 0.00 in 0.16 in 1.06 in (1906)
Month to date precipitation 0.00 0.16  
Year to date precipitation 15.68 17.29  
Sea Level Pressure  
Sea Level Pressure 29.88 in    
Wind  
Wind Speed 10 mph (WNW)    
Max Wind Speed 21 mph    
Max Gust Speed 27 mph    
Visibility 10 miles    
Events      
T = Trace of Precipitation, MM = Missing Value Source: NWS Daily Summary

Daily Weather History Graph

Daily Weather History Graph

Search for Another Location

Airport or City:

Trip Planner

Search our weather history database for the weather conditions in past years. The results will help you decide how hot, cold, wet, or windy it might be!

Date:

Astronomy

Jul. 01, 2014 Rise Set
Actual Time 5:55 AM CDT 8:51 PM CDT
Civil Twilight 5:22 AM CDT 9:24 PM CDT
Nautical Twilight 4:41 AM CDT 10:05 PM CDT
Astronomical Twilight 3:53 AM CDT 10:52 PM CDT
Moon 10:03 AM CDT (7/1) 11:16 PM CDT (7/1)
Length of Visible Light 16h 01m
Length of Day
14h 56m
Waxing Crescent, 17% of the Moon is Illuminated
Jul 1
Waxing Crescent
Jul 5
First Quarter
Jul 12
Full
Jul 18
Last Quarter
Jul 26
New

Hourly Weather History & Observations

Time (CDT) Temp. Heat Index Dew Point Humidity Pressure Visibility Wind Dir Wind Speed Gust Speed Precip Events Conditions
12:53 AM 66.0 °F - 64.0 °F 93% 29.82 in 10.0 mi WNW 5.8 mph - N/A   Clear
1:53 AM 64.9 °F - 64.0 °F 97% 29.81 in 10.0 mi North 4.6 mph - N/A   Clear
2:53 AM 66.0 °F - 63.0 °F 90% 29.82 in 10.0 mi WNW 3.5 mph - N/A   Clear
3:53 AM 66.0 °F - 64.0 °F 93% 29.85 in 10.0 mi SW 4.6 mph - N/A   Clear
4:53 AM 66.0 °F - 64.0 °F 93% 29.89 in 10.0 mi NNE 3.5 mph - N/A   Clear
5:53 AM 66.9 °F - 60.1 °F 79% 29.87 in 10.0 mi WNW 11.5 mph - N/A   Clear
6:53 AM 66.9 °F - 62.1 °F 84% 29.88 in 10.0 mi WNW 9.2 mph - N/A   Clear
7:53 AM 71.1 °F - 62.1 °F 73% 29.88 in 10.0 mi West 3.5 mph - N/A   Clear
8:53 AM 72.0 °F - 62.1 °F 71% 29.88 in 10.0 mi WNW 5.8 mph - N/A   Clear
9:53 AM 73.9 °F - 60.1 °F 62% 29.88 in 10.0 mi NW 10.4 mph - N/A   Clear
10:53 AM 75.9 °F - 60.1 °F 58% 29.89 in 10.0 mi West 11.5 mph - N/A   Clear
11:53 AM 78.1 °F - 59.0 °F 52% 29.90 in 10.0 mi West 12.7 mph - N/A   Clear
12:53 PM 80.1 °F 81.1 °F 61.0 °F 52% 29.89 in 10.0 mi West 13.8 mph - N/A   Clear
1:53 PM 82.0 °F 82.7 °F 61.0 °F 49% 29.88 in 10.0 mi WNW 16.1 mph - N/A   Partly Cloudy
2:53 PM 82.9 °F 83.2 °F 60.1 °F 46% 29.88 in 10.0 mi WNW 12.7 mph - N/A   Clear
3:53 PM 84.0 °F 84.4 °F 61.0 °F 46% 29.87 in 10.0 mi WNW 11.5 mph - N/A   Clear
4:53 PM 82.0 °F 82.7 °F 61.0 °F 49% 29.87 in 10.0 mi NW 12.7 mph - N/A   Partly Cloudy
5:53 PM 82.0 °F 83.0 °F 62.1 °F 51% 29.86 in 10.0 mi WNW 8.1 mph - N/A   Clear
6:53 PM 80.1 °F 81.1 °F 61.0 °F 52% 29.86 in 9.0 mi NW 12.7 mph - N/A   Partly Cloudy
7:53 PM 77.0 °F - 63.0 °F 62% 29.87 in 10.0 mi North 10.4 mph - N/A   Partly Cloudy
8:53 PM 73.9 °F - 57.0 °F 55% 29.90 in 10.0 mi NW 13.8 mph 23.0 mph N/A   Scattered Clouds
9:53 PM 70.0 °F - 55.0 °F 59% 29.94 in 10.0 mi NNW 13.8 mph - N/A   Clear
10:53 PM 68.0 °F - 55.0 °F 63% 29.99 in 10.0 mi NNW 12.7 mph - N/A   Clear
11:53 PM 64.9 °F - 55.9 °F 73% 30.02 in 10.0 mi NW 5.8 mph - N/A   Clear